Weather History for Berlin, NH

Change the Weather History Date:

Sunday, January 1, 2012

  Actual Average Record
Temperature  
Mean Temperature 40 °F -  
Max Temperature 46 °F 25 °F 48 °F (2005)
Min Temperature 35 °F 5 °F -18 °F (1998)
Degree Days  
Heating Degree Days 24    
Moisture  
Dew Point 34 °F    
Average Humidity 84    
Maximum Humidity 93    
Minimum Humidity 61    
Precipitation  
Precipitation 0.12 in - - ()
Sea Level Pressure  
Sea Level Pressure 29.85 in    
Wind  
Wind Speed 5 mph (South)    
Max Wind Speed 20 mph    
Max Gust Speed 24 mph    
Visibility 9 miles    
Events Rain    
Averages and records for this station are not official NWS values.
T = Trace of Precipitation, MM = Missing Value Source: NWS Daily Summary

Daily Weather History Graph

Daily Weather History Graph

Search for Another Location

Airport:

Trip Planner

Search our weather history database for the weather conditions in past years. The results will help you decide how hot, cold, wet, or windy it might be!

Date:

Astronomy

Jan. 01, 2012 Rise Set
Actual Time 7:21 AM EST 4:14 PM EST
Civil Twilight 6:48 AM EST 4:48 PM EST
Nautical Twilight 6:11 AM EST 5:25 PM EST
Astronomical Twilight 5:35 AM EST 6:00 PM EST
Moon 11:10 AM EST (1/1) 12:03 AM EST (1/1)
Length of Visible Light 10h 00m
Length of Day
8h 53m
First Quarter, 54% of the Moon is Illuminated
Jan 1
First Quarter
Jan 9
Full
Jan 16
Last Quarter
Jan 23
New
Jan 30
First Quarter

Hourly Weather History & Observations

Time (EST) Temp. Windchill Dew Point Humidity Pressure Visibility Wind Dir Wind Speed Gust Speed Precip Events Conditions
12:19 AM 37.4 °F 32.1 °F 35.6 °F 93% 29.90 in 8.0 mi West 6.9 mph - N/A   Overcast
12:50 AM 37.4 °F 31.4 °F 35.6 °F 93% 29.88 in 7.0 mi West 8.1 mph - N/A   Overcast
1:04 AM 37.4 °F 31.4 °F 35.6 °F 93% 29.89 in 7.0 mi West 8.1 mph - N/A   Overcast
1:25 AM 37.4 °F 34.9 °F 35.6 °F 93% 29.89 in 9.0 mi Variable 3.5 mph - N/A   Overcast
1:52 AM 37.0 °F 32.4 °F 34.0 °F 89% 29.93 in 9.0 mi NW 5.8 mph - N/A   Overcast
2:39 AM 37.4 °F - 33.8 °F 87% 29.92 in 7.0 mi Calm Calm - N/A   Overcast
2:52 AM 37.0 °F 34.5 °F 34.0 °F 89% 29.96 in 8.0 mi WSW 3.5 mph - N/A   Overcast
3:34 AM 37.4 °F 34.9 °F 33.8 °F 87% 29.93 in 9.0 mi Variable 3.5 mph - N/A   Overcast
3:50 AM 37.4 °F - 33.8 °F 87% 29.93 in 8.0 mi Calm Calm - N/A   Overcast
3:52 AM 37.0 °F 34.5 °F 34.0 °F 89% 29.97 in 9.0 mi Variable 3.5 mph - N/A   Overcast
4:00 AM 37.4 °F 34.9 °F 33.8 °F 87% 29.93 in 9.0 mi Variable 3.5 mph - N/A   Overcast
4:23 AM 37.4 °F 34.9 °F 33.8 °F 87% 29.93 in 7.0 mi NW 3.5 mph - N/A   Overcast
4:42 AM 37.4 °F 34.9 °F 33.8 °F 87% 29.94 in 7.0 mi Variable 3.5 mph - N/A   Overcast
4:52 AM 37.0 °F 34.5 °F 33.1 °F 86% 29.99 in 8.0 mi Variable 3.5 mph - N/A   Overcast
5:03 AM 35.6 °F 30.7 °F 33.8 °F 93% 29.95 in 8.0 mi West 5.8 mph - N/A   Overcast
5:52 AM 37.0 °F 34.5 °F 33.1 °F 86% 30.01 in 10.0 mi Variable 3.5 mph - N/A   Overcast
6:52 AM 36.0 °F - 33.1 °F 89% 30.04 in 10.0 mi Calm Calm - N/A   Overcast
7:52 AM 36.0 °F - 33.1 °F 89% 30.03 in 10.0 mi Calm Calm - N/A   Overcast
8:52 AM 37.0 °F - 33.1 °F 86% 30.03 in 10.0 mi Calm Calm - N/A   Overcast
9:11 AM 37.4 °F - 33.8 °F 87% 29.99 in 10.0 mi Calm Calm - N/A   Overcast
9:18 AM 37.4 °F - 33.8 °F 87% 29.99 in 10.0 mi Calm Calm - N/A   Overcast
9:52 AM 39.0 °F - 34.0 °F 82% 30.01 in 10.0 mi Calm Calm - N/A   Overcast
10:10 AM 39.2 °F 33.6 °F 33.8 °F 81% 29.94 in 10.0 mi East 8.1 mph - N/A   Scattered Clouds
10:52 AM 42.1 °F - 34.0 °F 73% 29.96 in 10.0 mi Calm Calm - N/A   Clear
11:52 AM 43.0 °F 41.3 °F 33.1 °F 68% 29.94 in 10.0 mi North 3.5 mph - N/A   Mostly Cloudy
12:52 PM 42.1 °F - 34.0 °F 73% 29.89 in 10.0 mi Calm Calm - N/A   Scattered Clouds
1:52 PM 45.0 °F - 34.0 °F 65% 29.85 in 10.0 mi Calm Calm - N/A   Clear
2:52 PM 46.0 °F 43.1 °F 33.1 °F 61% 29.83 in 10.0 mi SSE 5.8 mph - N/A   Clear
3:52 PM 42.1 °F 35.7 °F 33.1 °F 70% 29.82 in 10.0 mi SSE 11.5 mph 19.6 mph N/A   Clear
5:52 PM 41.0 °F 34.7 °F 34.0 °F 76% 29.73 in 10.0 mi SSE 10.4 mph 18.4 mph N/A   Clear
6:35 PM 41.0 °F 33.5 °F 33.8 °F 76% 29.70 in 10.0 mi SSE 13.8 mph 20.7 mph N/A   Mostly Cloudy
6:44 PM 41.0 °F 33.5 °F 33.8 °F 76% 29.71 in 10.0 mi SSE 13.8 mph 23.0 mph N/A   Scattered Clouds
6:52 PM 41.0 °F 35.2 °F 34.0 °F 76% 29.75 in 10.0 mi SSE 9.2 mph 18.4 mph N/A   Scattered Clouds
7:52 PM 41.0 °F 31.9 °F 35.1 °F 79% 29.70 in 10.0 mi SE 19.6 mph 24.2 mph N/A   Mostly Cloudy
8:26 PM 41.0 °F 33.9 °F 35.6 °F 81% 29.64 in 10.0 mi SSE 12.7 mph 20.7 mph N/A   Overcast
8:52 PM 39.9 °F 31.1 °F 36.0 °F 86% 29.67 in 10.0 mi SSE 17.3 mph 23.0 mph 0.00 in Rain Light Rain
9:44 PM 39.2 °F 34.2 °F 37.4 °F 93% 29.63 in 4.0 mi SSE 6.9 mph - 0.08 in Rain Rain
10:06 PM 39.2 °F 34.2 °F 37.4 °F 93% 29.61 in 5.0 mi South 6.9 mph - 0.03 in Rain Light Rain
10:28 PM 39.2 °F 37.0 °F 37.4 °F 93% 29.59 in 3.0 mi SSE 3.5 mph - 0.06 in Rain Light Rain
10:52 PM 39.0 °F 36.8 °F 36.0 °F 89% 29.59 in 10.0 mi South 3.5 mph - 0.09 in Rain Light Rain
11:17 PM 37.4 °F 33.8 °F 35.6 °F 93% 29.56 in 9.0 mi SSE 4.6 mph - 0.01 in Rain Light Rain
11:52 PM 39.0 °F 36.8 °F 36.0 °F 89% 29.58 in 9.0 mi Variable 3.5 mph - 0.03 in Rain Light Rain